EW2237 Weather Reports


Display with metric or nautical units.
time (UTC)temp
F
wind
direction
speed
MPH
gust
MPH
rain 1hr
in
rain 24hr
in
rain mn
in
humidity
%
barometer
mb
20260505083329 60 153 2.0 6.0 0.00 0.00 0.00 80 1010.4
20260505082812 60 161 0.0 1.0 0.00 0.00 0.00 79 1010.4
20260505082317 60 200 0.0 1.0 0.00 0.00 0.00 79 1010.4
20260505081821 60 142 0.0 1.0 0.00 0.00 0.00 79 1010.5
20260505081324 60 154 0.0 2.0 0.00 0.00 0.00 78 1010.5
20260505080829 60 163 0.0 2.0 0.00 0.00 0.00 78 1010.5
20260505080332 60 200 0.0 4.0 0.00 0.00 0.00 77 1010.6
20260505075815 61 164 2.0 4.0 0.00 0.00 0.00 77 1010.6
20260505075317 61 35 0.0 7.0 0.00 0.00 0.00 76 1010.6
20260505074820 60 151 1.0 7.0 0.00 0.00 0.00 76 1010.4
20260505074324 60 146 2.0 4.0 0.00 0.00 0.00 77 1010.2
20260505073828 60 185 1.0 4.0 0.00 0.00 0.00 77 1010.2
20260505073331 59 184 3.0 4.0 0.00 0.00 0.00 78 1010.3
20260505072814 59 145 2.0 4.0 0.00 0.00 0.00 78 1010.4
20260505072317 59 145 1.0 2.0 0.00 0.00 0.00 78 1010.5
20260505071821 58 173 1.0 2.0 0.00 0.00 0.00 79 1010.5
20260505071324 58 156 1.0 2.0 0.00 0.00 0.00 79 1010.5
20260505070828 58 165 0.0 2.0 0.00 0.00 0.00 80 1010.5
20260505070330 57 148 0.0 2.0 0.00 0.00 0.00 80 1010.5
20260505065816 57 223 0.0 2.0 0.00 0.00 0.00 81 1010.4
20260505065321 57 133 0.0 1.0 0.00 0.00 0.00 81 1010.4
20260505064846 56 148 0.0 1.0 0.00 0.00 0.00 81 1010.3
20260505064329 56 136 0.0 1.0 0.00 0.00 0.00 81 1010.3
20260505063812 56 154 0.0 0.0 0.00 0.00 0.00 80 1010.2
20260505063336 56 149 0.0 1.0 0.00 0.00 0.00 79 1010.2
20260505062819 56 149 0.0 1.0 0.00 0.00 0.00 78 1010.2
20260505062322 56 148 0.0 0.0 0.00 0.00 0.00 78 1010.3
20260505061825 57 148 0.0 0.0 0.00 0.00 0.00 77 1010.2
20260505061328 57 148 0.0 0.0 0.00 0.00 0.00 76 1010.2
20260505060829 58 148 0.0 0.0 0.00 0.00 0.00 75 1010.2
20260505060312 58 148 0.0 0.0 0.00 0.00 0.00 75 1010.2
20260505055816 58 148 0.0 1.0 0.00 0.00 0.00 75 1010.3
20260505055341 58 148 0.0 1.0 0.00 0.00 0.00 74 1010.3
20260505054824 59 148 0.0 1.0 0.00 0.00 0.00 74 1010.3
20260505054328 59 148 0.0 2.0 0.00 0.00 0.00 73 1010.3
20260505053853 59 148 0.0 2.0 0.00 0.00 0.00 73 1010.4
20260505053316 59 145 1.0 3.0 0.00 0.00 0.00 73 1010.4
20260505052820 59 157 0.0 3.0 0.00 0.00 0.00 73 1010.4
20260505052325 59 166 1.0 2.0 0.00 0.00 0.00 73 1010.4
20260505051828 59 151 0.0 2.0 0.00 0.00 0.00 72 1010.5
20260505051352 60 143 0.0 1.0 0.00 0.00 0.00 71 1010.4
20260505050814 60 143 0.0 1.0 0.00 0.00 0.00 71 1010.4
20260505050316 60 170 0.0 1.0 0.00 0.00 0.00 70 1010.4
20260505041330 61 176 2.0 9.0 0.00 0.00 0.00 68 1010.2
20260505040814 61 147 3.0 6.0 0.00 0.00 0.00 68 1010.3
20260505040319 61 157 2.0 7.0 0.00 0.00 0.00 68 1010.2
20260505035821 61 165 4.0 7.0 0.00 0.00 0.00 68 1010.3
20260505035326 61 145 1.0 5.0 0.00 0.00 0.00 67 1010.1
20260505034831 61 45 1.0 4.0 0.00 0.00 0.00 67 1010.2
20260505034335 62 148 1.0 5.0 0.00 0.00 0.00 67 1010.2
20260505033818 62 153 2.0 5.0 0.00 0.00 0.00 66 1010.2
20260505033323 62 175 2.0 6.0 0.00 0.00 0.00 66 1010.2
20260505032827 62 155 2.0 6.0 0.00 0.00 0.00 65 1010.2
20260505032331 62 191 2.0 7.0 0.00 0.00 0.00 65 1010.2
20260505031835 62 156 2.0 7.0 0.00 0.00 0.00 64 1010.2
20260505031316 62 178 3.0 6.0 0.00 0.00 0.00 63 1010.2
20260505030820 62 140 2.0 6.0 0.00 0.00 0.00 63 1010.1
20260505030343 62 203 2.0 6.0 0.00 0.00 0.00 61 1010.2
20260505025825 62 154 1.0 5.0 0.00 0.00 0.00 59 1010.2
20260505025327 62 155 3.0 5.0 0.00 0.00 0.00 58 1010.2
20260505024830 62 168 1.0 5.0 0.00 0.00 0.00 57 1010.4
20260505024313 62 219 1.0 5.0 0.00 0.00 0.00 55 1010.3
20260505023815 63 191 2.0 5.0 0.00 0.00 0.00 54 1010.4
20260505023340 63 150 1.0 5.0 0.00 0.00 0.00 53 1010.5
20260505022824 63 184 1.0 5.0 0.00 0.00 0.00 52 1010.5
20260505022327 63 204 1.0 4.0 0.00 0.00 0.00 50 1010.5
20260505021831 64 167 1.0 4.0 0.00 0.00 0.00 49 1010.5
20260505021315 64 174 2.0 4.0 0.00 0.00 0.00 49 1010.4
20260505020819 64 162 1.0 5.0 0.00 0.00 0.00 48 1010.4
20260505020324 64 191 2.0 5.0 0.00 0.00 0.00 48 1010.3
20260505015828 65 160 1.0 4.0 0.00 0.00 0.00 48 1010.3
20260505015332 65 126 2.0 6.0 0.00 0.00 0.00 48 1010.2
20260505014835 65 159 3.0 6.0 0.00 0.00 0.00 48 1010.3
20260505014317 64 173 2.0 5.0 0.00 0.00 0.00 49 1010.3
20260505013840 64 209 2.0 4.0 0.00 0.00 0.00 50 1010.3
20260505013323 65 147 1.0 4.0 0.00 0.00 0.00 50 1010.3
20260505012825 65 141 1.0 4.0 0.00 0.00 0.00 50 1010.3
20260505012329 65 200 1.0 4.0 0.00 0.00 0.00 51 1010.2
20260505011813 65 224 1.0 4.0 0.00 0.00 0.00 51 1010.1
20260505011317 65 160 1.0 4.0 0.00 0.00 0.00 52 1010.0
20260505010821 65 148 1.0 4.0 0.00 0.00 0.00 52 1009.9
20260505010323 65 148 2.0 4.0 0.00 0.00 0.00 52 1009.9
20260505005826 65 155 1.0 4.0 0.00 0.00 0.00 52 1009.9
20260505005330 65 174 2.0 4.0 0.00 0.00 0.00 52 1009.8
20260505004814 65 124 0.0 4.0 0.00 0.00 0.00 52 1009.8
20260505004318 65 155 1.0 4.0 0.00 0.00 0.00 52 1009.8
20260505003822 65 131 1.0 4.0 0.00 0.00 0.00 51 1009.8
20260505003326 66 165 0.0 3.0 0.00 0.00 0.00 50 1009.7
20260505002831 66 210 0.0 2.0 0.00 0.00 0.00 49 1009.6
20260505002316 66 197 1.0 3.0 0.00 0.00 0.00 48 1009.6
20260505001820 67 162 1.0 3.0 0.00 0.00 0.00 47 1009.6
20260505001325 67 155 1.0 2.0 0.00 0.00 0.00 47 1009.6
20260505000812 67 144 0.0 2.0 0.00 0.00 0.00 47 1009.5
20260505000352 67 163 1.0 2.0 0.00 0.00 0.00 46 1009.5
20260504235815 68 168 0.0 2.0 0.00 0.00 0.00 45 1009.5
20260504235337 69 143 0.0 3.0 0.00 0.00 0.00 45 1009.5
20260504234819 69 158 1.0 3.0 0.00 0.00 0.00 43 1009.5
20260504234343 69 154 1.0 3.0 0.00 0.00 0.00 43 1009.5
20260504233826 70 161 1.0 3.0 0.00 0.00 0.00 42 1009.5
20260504233330 70 158 1.0 3.0 0.00 0.00 0.00 41 1009.5
20260504232813 70 141 2.0 3.0 0.00 0.00 0.00 40 1009.4
20260504232316 71 146 1.0 5.0 0.00 0.00 0.00 40 1009.4
20260504231818 71 134 2.0 5.0 0.00 0.00 0.00 40 1009.4
20260504231320 71 137 1.0 4.0 0.00 0.00 0.00 39 1009.4
20260504230824 71 208 2.0 4.0 0.00 0.00 0.00 39 1009.4
20260504230329 71 233 1.0 5.0 0.00 0.00 0.00 39 1009.5
20260504225813 71 203 1.0 5.0 0.00 0.00 0.00 39 1009.4
20260504225319 72 156 1.0 5.0 0.00 0.00 0.00 38 1009.5
20260504224823 72 155 1.0 5.0 0.00 0.00 0.00 38 1009.4
20260504224326 72 203 1.0 5.0 0.00 0.00 0.00 38 1009.4
20260504223851 72 230 1.0 6.0 0.00 0.00 0.00 38 1009.4
20260504223334 72 166 2.0 6.0 0.00 0.00 0.00 38 1009.4
20260504222816 72 162 3.0 7.0 0.00 0.00 0.00 37 1009.4
20260504222319 73 224 4.0 7.0 0.00 0.00 0.00 37 1009.4
20260504221824 73 164 3.0 8.0 0.00 0.00 0.00 36 1009.4
20260504221328 73 144 2.0 8.0 0.00 0.00 0.00 36 1009.4
20260504220830 73 156 2.0 7.0 0.00 0.00 0.00 36 1009.4
20260504220313 74 168 3.0 7.0 0.00 0.00 0.00 35 1009.5
20260504215816 74 132 1.0 7.0 0.00 0.00 0.00 35 1009.5
20260504215322 75 164 1.0 7.0 0.00 0.00 0.00 35 1009.6
20260504214825 75 156 3.0 12.0 0.00 0.00 0.00 34 1009.5
20260504214315 75 103 1.0 12.0 0.00 0.00 0.00 34 1009.6
20260504213816 75 277 1.0 8.0 0.00 0.00 0.00 35 1009.6
20260504213319 75 177 2.0 8.0 0.00 0.00 0.00 34 1009.6
20260504212821 75 139 5.0 12.0 0.00 0.00 0.00 33 1009.7
20260504212326 75 155 3.0 12.0 0.00 0.00 0.00 34 1009.6
20260504211826 75 172 3.0 13.0 0.00 0.00 0.00 34 1009.7
20260504211331 76 227 5.0 13.0 0.00 0.00 0.00 33 1009.6
20260504210815 76 171 2.0 7.0 0.00 0.00 0.00 34 1009.6
20260504210319 76 166 2.0 6.0 0.00 0.00 0.00 33 1009.5
20260504205824 76 49 2.0 8.0 0.00 0.00 0.00 34 1009.5
20260504205348 75 53 2.0 9.0 0.00 0.00 0.00 33 1009.5
20260504204831 75 82 4.0 13.0 0.00 0.00 0.00 33 1009.6
20260504204315 76 165 5.0 13.0 0.00 0.00 0.00 33 1009.6
20260504203819 76 150 1.0 8.0 0.00 0.00 0.00 34 1009.6
20260504203322 76 125 1.0 8.0 0.00 0.00 0.00 34 1009.7
20260504202827 76 302 1.0 9.0 0.00 0.00 0.00 35 1009.7
20260504202333 75 165 1.0 10.0 0.00 0.00 0.00 35 1009.7
20260504201814 75 49 2.0 12.0 0.00 0.00 0.00 34 1009.8
20260504201318 75 60 3.0 12.0 0.00 0.00 0.00 34 1009.9
20260504200821 75 248 2.0 9.0 0.00 0.00 0.00 33 1010.0
20260504200326 75 286 3.0 6.0 0.00 0.00 0.00 33 1010.1
20260504195830 75 215 2.0 10.0 0.00 0.00 0.00 34 1010.0
20260504195314 75 23 3.0 10.0 0.00 0.00 0.00 33 1010.1
20260504194817 75 156 2.0 11.0 0.00 0.00 0.00 35 1010.1
20260504194322 75 68 2.0 11.0 0.00 0.00 0.00 34 1010.2
20260504193826 75 160 4.0 11.0 0.00 0.00 0.00 33 1010.3
20260504193330 75 157 2.0 11.0 0.00 0.00 0.00 36 1010.3
20260504192852 75 223 3.0 8.0 0.00 0.00 0.00 33 1010.4
20260504192314 74 346 2.0 6.0 0.00 0.00 0.00 34 1010.5
20260504191818 75 15 2.0 10.0 0.00 0.00 0.00 36 1010.6
20260504191322 74 177 2.0 10.0 0.00 0.00 0.00 35 1010.6
20260504190826 74 130 2.0 10.0 0.00 0.00 0.00 35 1010.6
20260504190330 74 152 1.0 9.0 0.00 0.00 0.00 34 1010.6
20260504185811 74 69 2.0 9.0 0.00 0.00 0.00 34 1010.7
20260504185317 74 326 2.0 5.0 0.00 0.00 0.00 35 1010.7
20260504184822 74 94 2.0 8.0 0.00 0.00 0.00 35 1010.8
20260504184325 74 259 2.0 8.0 0.00 0.00 0.00 35 1010.9
20260504183828 74 28 1.0 7.0 0.00 0.00 0.00 36 1011.0
20260504183311 73 312 2.0 8.0 0.00 0.00 0.00 36 1011.1
20260504182815 73 354 3.0 8.0 0.00 0.00 0.00 36 1011.0
20260504182319 73 259 3.0 7.0 0.00 0.00 0.00 35 1011.2
20260504181819 73 4 3.0 9.0 0.00 0.00 0.00 35 1011.3
20260504181322 73 58 3.0 9.0 0.00 0.00 0.00 35 1011.4
20260504180827 73 119 3.0 9.0 0.00 0.00 0.00 34 1011.6
20260504180330 73 184 2.0 7.0 0.00 0.00 0.00 39 1011.7
20260504175813 72 357 2.0 8.0 0.00 0.00 0.00 36 1011.6
20260504175337 72 356 2.0 14.0 0.00 0.00 0.00 36 1011.7
20260504174820 72 77 1.0 14.0 0.00 0.00 0.00 35 1011.7
20260504174324 73 353 3.0 10.0 0.00 0.00 0.00 34 1011.9
20260504173829 72 137 2.0 10.0 0.00 0.00 0.00 36 1011.9
20260504173313 72 22 3.0 10.0 0.00 0.00 0.00 37 1011.9
20260504172816 71 44 3.0 14.0 0.00 0.00 0.00 35 1012.0
20260504172320 72 359 4.0 14.0 0.00 0.00 0.00 34 1012.1
20260504171824 71 31 3.0 8.0 0.00 0.00 0.00 35 1012.1
20260504171347 71 30 3.0 7.0 0.00 0.00 0.00 35 1012.1
20260504170831 72 11 3.0 7.0 0.00 0.00 0.00 36 1012.3
20260504170314 71 196 2.0 7.0 0.00 0.00 0.00 37 1012.3
20260504160320 69 270 2.0 9.0 0.00 0.00 0.00 38 1013.3
20260504150822 67 313 1.0 5.0 0.00 0.00 0.00 46 1013.5
20260504150326 67 303 1.0 5.0 0.00 0.00 0.00 47 1013.6
20260504141323 64 5 1.0 5.0 0.00 0.00 0.00 54 1013.7
20260504140829 63 148 1.0 6.0 0.00 0.00 0.00 55 1013.7
20260504140352 63 8 2.0 6.0 0.00 0.00 0.00 54 1013.8
20260504130353 59 156 1.0 8.0 0.00 0.00 0.00 64 1014.2
20260504120314 53 216 0.0 4.0 0.00 0.00 0.00 82 1014.5
20260504110316 50 174 0.0 0.0 0.00 0.00 0.00 82 1014.8
20260504100320 49 183 1.0 3.0 0.00 0.00 0.00 81 1014.9